Hebron, NE

6:42 AM CST on January 16, 2018 (GMT -0600)
Hebron Municipal

Weather History for KHJH - April, 2014

Change the Weather History Date:

Wednesday, April 30, 2014

  Actual Average Record
Temperature  
Mean Temperature 48 °F -  
Max Temperature 54 °F 69 °F 93 °F (1987)
Min Temperature 41 °F 45 °F 30 °F (1956)
Degree Days  
Heating Degree Days 18    
Moisture  
Dew Point 33 °F    
Average Humidity 62    
Maximum Humidity 88    
Minimum Humidity 33    
Precipitation  
Precipitation 0.00 in - - ()
Sea Level Pressure  
Sea Level Pressure 30.00 in    
Wind  
Wind Speed 14 mph (NW)    
Max Wind Speed 26 mph    
Max Gust Speed 36 mph    
Visibility 10 miles    
Events      
Averages and records for this station are not official NWS values.
T = Trace of Precipitation, MM = Missing Value Source: NWS Daily Summary

Daily Weather History Graph

Daily Weather History Graph

Search for Another Location

Airport or City:

Trip Planner

Search our weather history database for the weather conditions in past years. The results will help you decide how hot, cold, wet, or windy it might be!

Date:

Astronomy

Apr. 30, 2014 Rise Set
Actual Time 6:31 AM CDT 8:24 PM CDT
Civil Twilight 6:02 AM CDT 8:53 PM CDT
Nautical Twilight 5:26 AM CDT 9:29 PM CDT
Astronomical Twilight 4:48 AM CDT 10:08 PM CDT
Moon 7:33 AM CDT (4/30) 10:04 PM CDT (4/30)
Length of Visible Light 14h 51m
Length of Day
13h 53m
New Moon, 2% of the Moon is Illuminated
Apr 30
New Moon
May 6
First Quarter
May 14
Full
May 21
Last Quarter
May 28
New

Hourly Weather History & Observations

Time (CDT) Temp. Windchill Dew Point Humidity Pressure Visibility Wind Dir Wind Speed Gust Speed Precip Events Conditions
12:15 AM 43.0 °F 38.8 °F 39.2 °F 86% 29.96 in 10.0 mi NNW 6.9 mph - N/A   Overcast
12:35 AM 43.2 °F 39.0 °F 39.4 °F 86% 29.96 in 10.0 mi NW 6.9 mph - N/A   Overcast
12:55 AM 43.0 °F 39.5 °F 39.7 °F 88% 29.96 in 10.0 mi NW 5.8 mph - N/A   Overcast
1:15 AM 43.0 °F 38.8 °F 39.6 °F 88% 29.97 in 10.0 mi NW 6.9 mph - N/A   Overcast
1:35 AM 43.2 °F 38.4 °F 39.4 °F 86% 29.97 in 10.0 mi NW 8.1 mph - N/A   Overcast
1:55 AM 43.0 °F 38.2 °F 39.4 °F 87% 29.97 in 10.0 mi WNW 8.1 mph - N/A   Overcast
2:15 AM 42.8 °F 38.0 °F 39.2 °F 87% 29.96 in 10.0 mi WNW 8.1 mph - N/A   Overcast
2:35 AM 42.4 °F 35.7 °F 38.3 °F 85% 29.96 in 10.0 mi WNW 12.7 mph 16.1 mph N/A   Overcast
2:55 AM 41.7 °F 34.4 °F 36.5 °F 82% 29.96 in 10.0 mi NW 13.8 mph 19.6 mph N/A   Overcast
3:15 AM 41.0 °F 33.9 °F 36.0 °F 82% 29.97 in 10.0 mi NW 12.7 mph 20.7 mph N/A   Overcast
3:35 AM 41.0 °F 32.8 °F 35.8 °F 82% 29.97 in 10.0 mi NW 16.1 mph 20.7 mph N/A   Overcast
3:55 AM 41.5 °F 34.2 °F 36.0 °F 81% 29.97 in 10.0 mi NW 13.8 mph 21.9 mph N/A   Overcast
4:15 AM 41.9 °F 33.7 °F 36.1 °F 80% 29.97 in 10.0 mi NW 17.3 mph 24.2 mph N/A   Overcast
4:35 AM 41.5 °F 34.2 °F 36.0 °F 81% 29.97 in 10.0 mi NW 13.8 mph 20.7 mph N/A   Overcast
4:55 AM 41.2 °F 33.7 °F 35.6 °F 81% 29.97 in 10.0 mi NW 13.8 mph 23.0 mph N/A   Mostly Cloudy
5:15 AM 41.0 °F 33.9 °F 35.6 °F 81% 29.98 in 10.0 mi NW 12.7 mph 21.9 mph N/A   Scattered Clouds
5:35 AM 41.0 °F 33.5 °F 35.6 °F 81% 29.98 in 10.0 mi NW 13.8 mph 23.0 mph N/A   Mostly Cloudy
5:55 AM 41.5 °F 34.6 °F 35.6 °F 79% 29.98 in 10.0 mi NW 12.7 mph 18.4 mph N/A   Overcast
6:15 AM 41.4 °F 33.3 °F 35.6 °F 80% 29.99 in 10.0 mi NW 16.1 mph 23.0 mph N/A   Overcast
6:35 AM 41.2 °F 33.4 °F 35.4 °F 80% 29.99 in 10.0 mi NW 15.0 mph 25.3 mph N/A   Overcast
6:55 AM 41.0 °F 32.5 °F 34.7 °F 78% 30.00 in 10.0 mi NW 17.3 mph 24.2 mph N/A   Overcast
7:15 AM 41.0 °F 33.1 °F 34.7 °F 78% 30.00 in 10.0 mi NW 15.0 mph 23.0 mph N/A   Mostly Cloudy
7:35 AM 41.4 °F 33.0 °F 34.7 °F 77% 30.00 in 10.0 mi NW 17.3 mph 25.3 mph N/A   Mostly Cloudy
7:55 AM 42.1 °F 33.1 °F 34.9 °F 76% 30.00 in 10.0 mi NW 20.7 mph 27.6 mph N/A   Scattered Clouds
8:15 AM 42.3 °F 33.8 °F 34.7 °F 75% 30.01 in 10.0 mi NW 18.4 mph 28.8 mph N/A   Scattered Clouds
8:35 AM 43.0 °F 34.5 °F 35.1 °F 74% 30.01 in 10.0 mi NW 19.6 mph 28.8 mph N/A   Scattered Clouds
8:55 AM 43.2 °F 34.7 °F 34.9 °F 73% 30.02 in 10.0 mi NW 19.6 mph 29.9 mph N/A   Scattered Clouds
9:15 AM 43.3 °F 33.8 °F 34.5 °F 71% 30.02 in 10.0 mi NW 25.3 mph 33.4 mph N/A   Scattered Clouds
9:35 AM 44.2 °F 36.2 °F 34.2 °F 68% 30.02 in 10.0 mi NW 19.6 mph 32.2 mph N/A   Scattered Clouds
9:55 AM 45.7 °F 37.1 °F 34.9 °F 66% 30.02 in 10.0 mi NW 24.2 mph 29.9 mph N/A   Scattered Clouds
10:15 AM 47.3 °F - 34.3 °F 61% 30.02 in 10.0 mi NNW 18.4 mph 29.9 mph N/A   Clear
10:35 AM 48.0 °F - 33.1 °F 56% 30.02 in 10.0 mi NNW 25.3 mph 32.2 mph N/A   Clear
10:55 AM 48.4 °F - 32.2 °F 54% 30.03 in 10.0 mi NW 26.5 mph 35.7 mph N/A   Scattered Clouds
11:15 AM 48.2 °F - 30.6 °F 51% 30.03 in 10.0 mi NNW 19.6 mph 34.5 mph N/A   Clear
11:35 AM 48.6 °F - 30.6 °F 50% 30.03 in 10.0 mi NNW 26.5 mph 31.1 mph N/A   Clear
11:55 AM 50.0 °F - 30.2 °F 47% 30.02 in 10.0 mi NNW 25.3 mph 33.4 mph N/A   Scattered Clouds
12:15 PM 50.7 °F - 31.8 °F 48% 30.02 in 10.0 mi NW 24.2 mph 29.9 mph N/A   Scattered Clouds
12:35 PM 50.4 °F - 29.5 °F 45% 30.02 in 10.0 mi NNW 19.6 mph 29.9 mph N/A   Scattered Clouds
12:55 PM 49.8 °F - 29.5 °F 46% 30.01 in 10.0 mi NNW 25.3 mph 35.7 mph N/A   Mostly Cloudy
1:15 PM 50.9 °F - 27.1 °F 40% 30.01 in 10.0 mi NNW 21.9 mph 32.2 mph N/A   Mostly Cloudy
1:35 PM 50.7 °F - 28.2 °F 42% 30.01 in 10.0 mi NW 20.7 mph 28.8 mph N/A   Mostly Cloudy
1:55 PM 51.8 °F - 27.1 °F 39% 30.01 in 10.0 mi NW 21.9 mph 31.1 mph N/A   Mostly Cloudy
2:15 PM 51.8 °F - 26.8 °F 38% 30.01 in 10.0 mi NW 19.6 mph 31.1 mph N/A   Mostly Cloudy
2:55 PM 52.0 °F - 26.6 °F 37% 30.01 in 10.0 mi NW 20.7 mph 26.5 mph N/A   Mostly Cloudy
3:15 PM 52.3 °F - 26.2 °F 36% 30.01 in 10.0 mi NW 17.3 mph 31.1 mph N/A   Mostly Cloudy
3:35 PM 54.0 °F - 25.2 °F 33% 30.00 in 10.0 mi NNW 19.6 mph 33.4 mph N/A   Mostly Cloudy
3:55 PM 52.0 °F - 24.4 °F 34% 30.00 in 10.0 mi NW 18.4 mph 33.4 mph N/A   Overcast
4:15 PM 52.9 °F - 24.8 °F 34% 29.99 in 10.0 mi NNW 21.9 mph 29.9 mph N/A   Mostly Cloudy
4:35 PM 51.3 °F - 25.0 °F 36% 29.99 in 10.0 mi NW 20.7 mph 27.6 mph N/A   Mostly Cloudy
4:55 PM 51.4 °F - 27.3 °F 39% 29.99 in 10.0 mi NW 18.4 mph 27.6 mph N/A   Mostly Cloudy
5:15 PM 51.3 °F - 27.1 °F 39% 29.99 in 10.0 mi NNW 21.9 mph 29.9 mph N/A   Overcast
5:35 PM 51.6 °F - 27.3 °F 39% 30.00 in 10.0 mi NW 21.9 mph 29.9 mph N/A   Overcast
5:55 PM 51.3 °F - 28.6 °F 42% 30.00 in 10.0 mi NNW 17.3 mph 26.5 mph N/A   Overcast
6:15 PM 50.5 °F - 27.3 °F 41% 30.00 in 10.0 mi NNW 18.4 mph 26.5 mph N/A   Mostly Cloudy
6:35 PM 50.4 °F - 28.6 °F 43% 30.00 in 10.0 mi NNW 12.7 mph 20.7 mph N/A   Scattered Clouds
6:55 PM 50.0 °F - 28.9 °F 44% 30.00 in 10.0 mi North 13.8 mph 23.0 mph N/A   Mostly Cloudy
7:15 PM 49.6 °F - 29.1 °F 45% 30.00 in 10.0 mi NNW 16.1 mph 21.9 mph N/A   Mostly Cloudy
7:35 PM 49.1 °F - 30.0 °F 48% 30.01 in 10.0 mi North 12.7 mph 20.7 mph N/A   Scattered Clouds
7:55 PM 48.6 °F - 30.7 °F 50% 30.01 in 10.0 mi North 11.5 mph 18.4 mph N/A   Scattered Clouds
8:15 PM 48.2 °F - 31.1 °F 52% 30.02 in 10.0 mi North 13.8 mph 21.9 mph N/A   Mostly Cloudy
8:35 PM 47.7 °F - 31.8 °F 54% 30.02 in 10.0 mi North 12.7 mph 21.9 mph N/A   Overcast
8:55 PM 46.9 °F - 32.4 °F 57% 30.02 in 10.0 mi North 9.2 mph 19.6 mph N/A   Overcast
9:15 PM 46.4 °F 40.7 °F 33.1 °F 60% 30.03 in 10.0 mi North 12.7 mph 19.6 mph N/A   Overcast
9:35 PM 46.0 °F 41.0 °F 34.0 °F 63% 30.03 in 10.0 mi North 10.4 mph 16.1 mph N/A   Overcast
9:55 PM 45.5 °F 41.3 °F 34.3 °F 65% 30.04 in 10.0 mi NNW 8.1 mph 16.1 mph N/A   Overcast
10:15 PM 45.5 °F 40.3 °F 34.7 °F 66% 30.04 in 10.0 mi NNW 10.4 mph - N/A   Overcast
10:35 PM 45.5 °F 40.8 °F 34.7 °F 66% 30.04 in 10.0 mi NNW 9.2 mph 18.4 mph N/A   Overcast
10:55 PM 45.5 °F 40.3 °F 34.7 °F 66% 30.03 in 10.0 mi NNW 10.4 mph - N/A   Overcast
11:15 PM 45.5 °F 41.8 °F 34.9 °F 66% 30.03 in 10.0 mi NNW 6.9 mph - N/A   Overcast
11:35 PM 45.0 °F 42.6 °F 35.2 °F 69% 30.03 in 10.0 mi WNW 4.6 mph - N/A   Overcast
11:55 PM 43.9 °F 42.3 °F 36.1 °F 74% 30.03 in 10.0 mi West 3.5 mph - N/A   Overcast